Location: Chiroubles
(46.1812°N, 4.6660°E)
Time: 03:34:34
(UTC+00:00)

Cosmos 1869 Rocket - Pass Details

Date: 15 August 2020
Orbit: 604 x 634 km, 82.5° (Epoch: 27 September)

Event Time Altitude Azimuth Distance (km) Brightness Sun altitude
Exits shadow 20:57:40 43° 153° (SSE) 884 3.9 -19.2°
Maximum altitude 20:58:53 61° 95° (E) 715 3.6 -19.4°
Drops below altitude 10° 21:03:19 10° 16° (NNE) 2,025 6.6 -19.9°
Sets 21:05:36 0° 13° (NNE) 2,940 7.5 -20.1°
